Location: Waco, TX
(31.5480°N, 97.1670°W)
Time: 15:47:58
(UTC-05:00)

ISS - Pass Details

Date: 19 August 2019
Orbit: 410 x 421 km, 51.6° (Epoch: 22 August)

Event Time Altitude Azimuth Distance (km) Brightness Sun altitude
Rises 16:54:51 0° 310° (NW) 2,366 0.5 39.9°
Reaches altitude 10° 16:56:58 10° 305° (NW) 1,500 -0.3 39.5°
Maximum altitude 17:00:15 51° 228° (SW) 530 -1.8 38.8°
Drops below altitude 10° 17:03:31 10° 151° (SSE) 1,490 -1.0 38.1°
Sets 17:05:38 0° 146° (SE) 2,348 -0.2 37.7°
